Volver al catálogo

DELTA 1 DEB

ActivoUNKNOWN
NORAD 27481·DEBRIS·🇺🇸 United States

Lanzado Jul 4, 1968 desde Vandenberg Space Force Base

Loading…

Próximos Pases (próximas 24 horas)

TLE

ActualizadoSource: Space-Track

Época: Sep 6, 2026, 14:04 UTC

1 27481U 68055J   26249.58644068  .00002511  00000-0  36113-2 0  9995
2 27481 120.6793 121.0827 1697337  37.8493 333.0403 11.08674120520994

Sigue DELTA 1 DEB en tiempo real con AllMySat

Download on the App Store